This is the latest recevied weather packets stored in our database for station/object W8UFO-13. If no packets are shown the sender has not sent any weather packets the latest 10 day(s).
| Time | Temp. | Humidity | Pressure | Rain* | Wind** | Luminosity | Snow |
|---|---|---|---|---|---|---|---|
| 1777920557 | 25° C | 51% | 1016.2 hPa | 0 mm | - | - | - |
| 1777920257 | 25° C | 52% | 1016.3 hPa | 0 mm | - | - | - |
| 1777919957 | 25° C | 50% | 1016.4 hPa | 0 mm | - | - | - |
| 1777919657 | 25° C | 51% | 1016.5 hPa | 0 mm | - | - | - |
| 1777919357 | 25° C | 52% | 1016.6 hPa | 0 mm | - | - | - |
| 1777919057 | 24.44° C | 51% | 1016.5 hPa | 0 mm | - | - | - |
| 1777918757 | 24.44° C | 51% | 1016.7 hPa | 0 mm | - | - | - |
| 1777918457 | 24.44° C | 53% | 1016.8 hPa | 0 mm | - | - | - |
| 1777918157 | 23.89° C | 51% | 1016.8 hPa | 0 mm | - | - | - |
| 1777917856 | 23.89° C | 51% | 1016.8 hPa | 0 mm | - | - | - |
| 1777917557 | 23.89° C | 57% | 1016.8 hPa | 0 mm | - | - | - |
| 1777917257 | 23.89° C | 50% | 1016.8 hPa | 0 mm | - | - | - |
| 1777916957 | 23.89° C | 51% | 1016.9 hPa | 0 mm | - | - | - |
| 1777916657 | 23.89° C | 53% | 1016.9 hPa | 0 mm | - | - | - |
| 1777916357 | 23.89° C | 53% | 1017.2 hPa | 0 mm | - | - | - |
| 1777916057 | 23.89° C | 56% | 1017.2 hPa | 0 mm | - | - | - |
| 1777915757 | 23.33° C | 51% | 1017.3 hPa | 0 mm | - | - | - |
| 1777915457 | 23.33° C | 52% | 1017.4 hPa | 0 mm | - | - | - |
| 1777915157 | 23.33° C | 51% | 1017.4 hPa | 0 mm | - | - | - |
| 1777914857 | 23.33° C | 53% | 1017.5 hPa | 0 mm | - | - | - |
| 1777914557 | 23.33° C | 53% | 1017.5 hPa | 0 mm | - | - | - |
| 1777914257 | 22.78° C | 52% | 1017.7 hPa | 0 mm | - | - | - |
| 1777913957 | 23.33° C | 53% | 1017.7 hPa | 0 mm | - | - | - |
| 1777913657 | 22.78° C | 54% | 1017.7 hPa | 0 mm | - | - | - |
| 1777913357 | 22.78° C | 55% | 1017.8 hPa | 0 mm | - | - | - |
* Rain latest hour (hover to see other rain measurements)
** Current wind speed in m/s (hover to see current wind gust speed)